Location: Fort Wayne
(41.1310°N, 85.1290°W)
Time: 18:32:17
(UTC-04:00)

Meteor 2-10 Rocket - Visible Passes

Search period start: 26 April 2015 00:00
Search period end: 06 May 2015 00:00
Orbit: 734 x 885 km, 81.2° (Epoch: 26 April)

Date Brightness Start Highest point End Pass type
(mag) Time Alt. Az. Time Alt. Az. Time Alt. Az.
26 Apr 5.5 21:46:00 12° E 21:46:04 12° E 21:48:14 10° ENE visible
26 Apr 3.6 23:27:07 77° SSW 23:27:32 85° W 23:33:07 10° N visible
27 Apr 6.3 01:08:36 10° W 01:10:33 11° WNW 01:12:09 10° NW visible
27 Apr 3.6 23:02:32 60° SSE 23:03:21 70° E 23:08:52 10° NNE visible
28 Apr 6.0 00:43:37 13° W 00:46:03 16° WNW 00:49:16 10° NNW visible
28 Apr 3.9 22:37:52 41° SE 22:39:13 50° E 22:44:32 10° NNE visible
29 Apr 5.7 00:18:58 16° WSW 00:21:37 22° WNW 00:25:44 10° NNW visible
29 Apr 4.3 22:13:09 27° SE 22:15:05 36° E 22:20:05 10° NNE visible
29 Apr 5.3 23:54:14 19° WSW 23:57:14 29° WNW 00:01:57 10° NNW visible
30 Apr 4.7 21:48:19 18° SE 21:51:00 26° E 21:55:30 10° NE visible
30 Apr 4.8 23:29:24 20° SW 23:32:54 40° WNW 23:38:01 10° N visible
01 May 5.1 21:23:23 10° SE 21:26:55 18° E 21:30:41 10° NE visible
01 May 4.2 23:04:27 18° SSW 23:08:38 56° WNW 23:13:59 10° N visible
02 May 3.7 22:39:22 13° SSW 22:44:24 78° W 22:49:51 10° N visible
03 May 3.6 22:14:37 10° S 22:20:12 76° E 22:25:38 10° NNE visible
03 May 6.3 23:59:58 10° W 00:02:59 14° WNW 00:05:39 10° NW visible
04 May 3.8 21:50:38 10° S 21:56:03 54° E 22:01:19 10° NNE visible
04 May 6.0 23:34:30 10° WSW 23:38:31 19° WNW 23:42:16 10° NNW visible
05 May 4.2 21:26:51 10° SSE 21:31:55 38° E 21:36:53 10° NNE visible
05 May 5.6 23:09:27 10° SW 23:14:07 26° WNW 23:18:33 10° NNW visible
